This demonstration page uses our WeatherBlox Daily Observations layout. Learn more.

Hourly Observations for April 25, 2016

Temp ( °F °C ) Dew Point ( °F °C ) Humidity (%) Winds ( mph kmh ) Pressure ( in mb ) Visibility ( mi km ) Precip ( " mm )
12:15 am 00:15 Clear 53 11.6 38 3.3 57 57 WSW 6 9 29.65 1004 10 16.0934 0 0
12:35 am 00:35 Clear 52 11.3 38 3.5 59 59 W 10 17 29.65 1004 10 16.0934 0 0
12:55 am 00:55 Clear 52 11 38 3.3 59 59 W 10 17 29.65 1004 10 16.0934 0 0
1:15 am 01:15 Clear 52 11.2 38 3.2 58 58 W 9 15 29.68 1005 10 16.0934 0 0
1:35 am 01:35 Clear 51 10.5 38 3.1 60 60 WNW 8 13 29.68 1005 10 16.0934 0 0
1:55 am 01:55 Clear 50 10.1 38 3.1 62 62 W 8 13 29.68 1005 10 16.0934 0 0
2:15 am 02:15 Clear 50 9.9 38 3.2 63 63 WNW 9 15 29.68 1005 10 16.0934 0 0
2:35 am 02:35 Clear 50 10 38 3.1 63 63 WNW 8 13 29.68 1005 10 16.0934 0 0
2:55 am 02:55 Clear 49 9.2 38 3.1 66 66 W 7 11 29.71 1006 10 16.0934 0 0
3:15 am 03:15 Clear 47 8.6 37 3 68 68 WNW 7 11 29.71 1006 10 16.0934 0 0
3:35 am 03:35 Clear 47 8.5 37 3 69 69 WNW 9 15 29.71 1006 10 16.0934 0 0
3:55 am 03:55 Clear 46 8 37 3 71 71 WNW 7 11 29.71 1006 10 16.0934 0 0
4:15 am 04:15 Clear 46 7.6 37 2.9 72 72 W 6 9 29.71 1006 10 16.0934 0 0
4:35 am 04:35 Clear 45 7.1 37 3 75 75 W 9 15 29.71 1006 10 16.0934 0 0
4:55 am 04:55 Clear 45 7.3 37 2.9 74 74 WNW 6 9 29.71 1006 10 16.0934 0 0
5:15 am 05:15 Clear 44 6.6 37 2.6 76 76 WNW 5 7 29.71 1006 10 16.0934 0 0
5:35 am 05:35 Clear 43 6.3 37 2.6 77 77 WNW 6 9 29.71 1006 10 16.0934 0 0
5:55 am 05:55 Clear 42 5.6 37 2.6 81 81 WNW 5 7 29.74 1007 10 16.0934 0 0
6:15 am 06:15 Clear 43 6.1 37 2.7 79 79 SW 3 6 29.77 1008 10 16.0934 0 0
6:35 am 06:35 Clear 43 6 37 2.5 78 78 W 5 7 29.77 1008 10 16.0934 0 0
6:55 am 06:55 Sunny 42 5.8 37 2.6 80 80 Calm 29.77 1008 10 16.0934 0 0
7:15 am 07:15 Sunny 42 5.8 37 2.6 80 80 Calm 29.8 1009 10 16.0934 0 0
7:35 am 07:35 Sunny 43 6.1 37 3 81 81 SW 3 6 29.8 1009 10 16.0934 0 0
7:55 am 07:55 Sunny 46 7.6 38 3.5 76 76 WSW 3 6 29.77 1008 10 16.0934 0 0
8:15 am 08:15 Sunny 47 8.5 38 3.1 69 69 W 7 11 29.8 1009 10 16.0934 0 0
8:35 am 08:35 Sunny 48 8.7 38 3.2 69 69 W 8 13 29.8 1009 10 16.0934 0 0
8:55 am 08:55 Sunny 49 9.2 38 3.3 67 67 W 8 13 29.8 1009 10 16.0934 0 0
9:15 am 09:15 Sunny 50 9.8 38 3.2 64 64 WNW 7 11 29.8 1009 10 16.0934 0 0
9:35 am 09:35 Sunny 51 10.6 38 3.3 61 61 NW 8 13 29.77 1008 10 16.0934 0 0
9:55 am 09:55 Sunny 52 11.3 38 3.2 58 58 NNW 7 11 29.77 1008 10 16.0934 0 0
10:15 am 10:15 Sunny 54 12 38 3.5 56 56 WNW 7 11 29.77 1008 10 16.0934 0 0
10:35 am 10:35 Sunny 54 12.2 38 3.4 55 55 WNW 8 13 29.77 1008 10 16.0934 0 0
10:55 am 10:55 Sunny 55 13 39 3.9 54 54 WNW 6 9 29.77 1008 10 16.0934 0 0
11:15 am 11:15 Sunny 56 13.4 39 3.8 53 53 WNW 8 13 29.77 1008 10 16.0934 0 0
11:35 am 11:35 Sunny 58 14.2 40 4.3 52 52 NW 10 17 29.74 1007 10 16.0934 0 0
11:55 am 11:55 Sunny 59 14.8 40 4.3 50 50 NW 5 7 29.74 1007 10 16.0934 0 0
12:15 pm 12:15 Sunny 59 15 39 4 48 48 NW 9 15 29.74 1007 10 16.0934 0 0
12:35 pm 12:35 Sunny 60 15.7 39 3.9 46 46 W 6 9 29.71 1006 10 16.0934 0 0
12:55 pm 12:55 Sunny 61 16.3 40 4.4 45 45 NNW 10 17 29.71 1006 10 16.0934 0 0
1:15 pm 13:15 Sunny 62 16.8 41 4.8 45 45 WNW 8 13 29.71 1006 10 16.0934 0 0
1:35 pm 13:35 Sunny 63 17.3 40 4.3 42 42 NNW 9 15 29.68 1005 10 16.0934 0 0
1:55 pm 13:55 Sunny 64 17.8 40 4.3 41 41 NW 7 11 29.65 1004 10 16.0934 0 0
2:15 pm 14:15 Sunny 65 18.1 40 4.4 41 41 NW 6 9 29.65 1004 10 16.0934 0 0
2:35 pm 14:35 Sunny 66 18.7 41 4.8 40 40 WNW 5 7 29.65 1004 10 16.0934 0 0
2:55 pm 14:55 Sunny 67 19.5 40 4.3 37 37 N 6 9 29.65 1004 10 16.0934 0 0
3:15 pm 15:15 Sunny 67 19.5 40 4.6 38 38 Calm 29.65 1004 10 16.0934 0 0
3:35 pm 15:35 Sunny 68 20 40 4.5 36 36 Calm 29.65 1004 10 16.0934 0 0
3:55 pm 15:55 Sunny 68 20.1 39 4 35 35 Calm 29.65 1004 10 16.0934 0 0
4:15 pm 16:15 Sunny 68 20.2 39 3.9 34 34 Calm 29.59 1002 10 16.0934 0 0
4:35 pm 16:35 Sunny 70 20.9 39 4.1 33 33 Calm 29.59 1002 10 16.0934 0 0
4:55 pm 16:55 Sunny 69 20.8 39 3.8 33 33 Calm 29.59 1002 10 16.0934 0 0
5:15 pm 17:15 Sunny 70 21.1 38 3.4 31 31 Calm 29.59 1002 10 16.0934 0 0
5:35 pm 17:35 Sunny 70 21.3 41 4.9 34 34 Calm 29.59 1002 10 16.0934 0 0
5:55 pm 17:55 Sunny 71 21.5 40 4.5 33 33 ESE 6 9 29.59 1002 10 16.0934 0 0
6:15 pm 18:15 Sunny 71 21.5 40 4.5 33 33 E 6 9 29.59 1002 10 16.0934 0 0
6:35 pm 18:35 Sunny 71 21.4 40 4.5 33 33 SE 3 6 29.59 1002 10 16.0934 0 0
6:55 pm 18:55 Sunny 70 21.1 40 4.3 33 33 E 7 11 29.59 1002 10 16.0934 0 0
7:15 pm 19:15 Sunny 69 20.8 40 4.6 35 35 E 7 11 29.59 1002 10 16.0934 0 0
7:35 pm 19:35 Sunny 69 20.6 40 4.4 35 35 E 10 17 29.59 1002 10 16.0934 0 0
7:55 pm 19:55 Sunny 66 19 41 5.2 40 40 ESE 7 11 29.62 1003 10 16.0934 0 0
8:15 pm 20:15 Sunny 65 18.1 42 5.6 44 44 E 8 13 29.62 1003 10 16.0934 0 0
8:35 pm 20:35 Clear 63 17.1 43 6 48 48 E 7 11 29.62 1003 10 16.0934 0 0
8:55 pm 20:55 Clear 61 16.2 43 6.1 51 51 ESE 7 11 29.68 1005 10 16.0934 0 0
9:15 pm 21:15 Clear 58 14.5 43 6.1 57 57 E 7 11 29.68 1005 10 16.0934 0 0
9:35 pm 21:35 Clear 57 13.7 43 6.1 60 60 E 8 13 29.68 1005 10 16.0934 0 0
9:55 pm 21:55 Clear 58 14.3 44 6.4 59 59 E 9 15 29.68 1005 10 16.0934 0 0
10:15 pm 22:15 Clear 58 14.5 43 6 57 57 E 8 13 29.68 1005 10 16.0934 0 0
10:35 pm 22:35 Clear 55 13 43 6.1 63 63 E 9 15 29.71 1006 10 16.0934 0 0
10:55 pm 22:55 Clear 55 13 44 6.6 65 65 E 9 15 29.71 1006 10 16.0934 0 0
11:15 pm 23:15 Clear 57 14 44 6.6 61 61 E 8 13 29.68 1005 10 16.0934 0 0
11:35 pm 23:35 Clear 55 12.5 44 6.9 69 69 ENE 7 11 29.71 1006 10 16.0934 0 0
11:55 pm 23:55 Clear 53 11.8 45 7 73 73 ENE 8 13 29.71 1006 10 16.0934 0 0

Powered by AerisWeather